Location: Milton Keynes
(52.0316°N, 0.7531°W)
Time: 01:53:46
(UTC+00:00)

Genesis I - Pass Details

Date: 29 January 2019
Orbit: 476 x 550 km, 64.5° (Epoch: 15 February)

Event Time Altitude Azimuth Distance (km) Brightness Sun altitude
Exits shadow 06:41:36 12° 310° (NW) 1,700 5.3 -10.3°
Maximum altitude 06:43:47 17° 346° (NNW) 1,442 5.2 -10.0°
Drops below altitude 10° 06:46:32 10° 27° (NNE) 1,837 6.1 -9.5°
Sets 06:49:25 0° 48° (NE) 2,729 7.3 -9.1°
